K3RTA-2 Weather Reports


Display with metric or nautical units.
time (UTC)temp
F
wind
direction
speed
MPH
gust
MPH
rain 1hr
in
rain 24hr
in
rain mn
in
humidity
%
barometer
mb
20230207090006 30 352 0.0 0.0 0.00 0.00 0.00 88 1026.5
20230207085506 31 352 0.0 0.0 0.00 0.00 0.00 87 1026.5
20230207085006 31 352 0.0 1.0 0.00 0.00 0.00 88 1026.3
20230207084505 31 320 0.0 1.0 0.00 0.00 0.00 88 1026.2
20230207083506 31 300 0.0 0.0 0.00 0.00 0.00 88 1026.1
20230207083005 31 308 0.0 1.0 0.00 0.00 0.00 88 1026.1
20230207082506 31 348 0.0 0.0 0.00 0.00 0.00 87 1025.9
20230207081505 31 350 0.0 0.0 0.00 0.00 0.00 86 1025.6
20230207081006 31 350 0.0 0.0 0.00 0.00 0.00 86 1025.6
20230207080505 32 350 0.0 0.0 0.00 0.00 0.00 86 1025.6
20230207080007 32 350 0.0 1.0 0.00 0.00 0.00 86 1025.4
20230207075506 32 350 0.0 0.0 0.00 0.00 0.00 85 1025.4
20230207074506 32 342 0.0 0.0 0.00 0.00 0.00 85 1025.3
20230207074006 32 342 0.0 0.0 0.00 0.00 0.00 85 1025.4
20230207073506 33 326 0.0 1.0 0.00 0.00 0.00 85 1025.4
20230207073006 33 311 0.0 1.0 0.00 0.00 0.00 84 1025.5
20230207072005 33 308 0.0 1.0 0.00 0.00 0.00 85 1025.5
20230207071506 33 313 0.0 1.0 0.00 0.00 0.00 85 1025.4
20230207071006 33 320 0.0 0.0 0.00 0.00 0.00 85 1025.3
20230207070506 32 320 0.0 0.0 0.00 0.00 0.00 84 1025.2
20230207070007 33 320 0.0 0.0 0.00 0.00 0.00 84 1025.2
20230207065007 33 320 0.0 1.0 0.00 0.00 0.00 84 1025.1
20230207064506 33 319 0.0 0.0 0.00 0.00 0.00 83 1025.2
20230207063006 34 301 0.0 2.0 0.00 0.00 0.00 83 1025.1
20230207062505 34 331 0.0 1.0 0.00 0.00 0.00 83 1025.0
20230207062006 34 303 0.0 0.0 0.00 0.00 0.00 83 1025.0
20230207061006 34 296 0.0 1.0 0.00 0.00 0.00 82 1024.7
20230207060507 35 337 0.0 3.0 0.00 0.00 0.00 81 1024.7
20230207060006 35 332 1.0 2.0 0.00 0.00 0.00 82 1024.6
20230207055505 35 325 1.0 3.0 0.00 0.00 0.00 83 1024.6
20230207055006 34 15 0.0 1.0 0.00 0.00 0.00 83 1024.5
20230207054506 34 15 0.0 0.0 0.00 0.00 0.00 83 1024.5
20230207054007 35 15 0.0 1.0 0.00 0.00 0.00 83 1024.5
20230207053506 35 15 0.0 1.0 0.00 0.00 0.00 83 1024.6
20230207052506 35 332 0.0 0.0 0.00 0.00 0.00 81 1024.5
20230207052006 35 332 0.0 0.0 0.00 0.00 0.00 80 1024.7
20230207051506 36 332 0.0 0.0 0.00 0.00 0.00 80 1024.7
20230207051007 36 332 0.0 0.0 0.00 0.00 0.00 79 1024.6
20230207050505 37 332 0.0 0.0 0.00 0.00 0.00 78 1024.7
20230207050005 37 332 0.0 0.0 0.00 0.00 0.00 78 1024.7
20230207045506 38 332 0.0 2.0 0.00 0.00 0.00 78 1024.7
20230207045006 38 328 0.0 1.0 0.00 0.00 0.00 77 1024.7
20230207044505 38 328 0.0 3.0 0.00 0.00 0.00 76 1024.6
20230207044006 38 319 0.0 2.0 0.00 0.00 0.00 76 1024.7
20230207043006 39 324 1.0 3.0 0.00 0.00 0.00 75 1024.6
20230207042006 39 322 1.0 3.0 0.00 0.00 0.00 75 1024.7
20230207041506 39 339 2.0 3.0 0.00 0.00 0.00 74 1024.5
20230207041006 40 4 2.0 3.0 0.00 0.00 0.00 74 1024.4
20230207040506 40 332 2.0 3.0 0.00 0.00 0.00 73 1024.4
20230207035506 40 349 3.0 8.0 0.00 0.00 0.00 73 1024.5
20230207035006 40 323 3.0 8.0 0.00 0.00 0.00 73 1024.5
20230207034505 41 329 3.0 7.0 0.00 0.00 0.00 73 1024.4
20230207033506 41 333 4.0 9.0 0.00 0.00 0.00 72 1024.2
20230207033007 41 328 3.0 8.0 0.00 0.00 0.00 72 1024.1
20230207032506 41 329 4.0 7.0 0.00 0.00 0.00 71 1024.0
20230207032006 41 347 5.0 8.0 0.00 0.00 0.00 71 1023.7
20230207031506 41 336 5.0 8.0 0.00 0.00 0.00 71 1023.8
20230207031007 42 346 3.0 7.0 0.00 0.00 0.00 70 1023.8
20230207030005 42 341 4.0 8.0 0.00 0.00 0.00 70 1023.6
20230207025507 42 334 6.0 13.0 0.00 0.00 0.00 69 1023.7
20230207024506 42 337 5.0 8.0 0.00 0.00 0.00 70 1023.6
20230207024005 42 339 5.0 10.0 0.00 0.00 0.00 70 1023.5
20230207023506 42 345 4.0 6.0 0.00 0.00 0.00 70 1023.5
20230207022506 43 341 5.0 10.0 0.00 0.00 0.00 69 1023.3
20230207022006 43 338 4.0 7.0 0.00 0.00 0.00 69 1023.3
20230207021505 43 335 4.0 9.0 0.00 0.00 0.00 69 1023.2
20230207021006 43 340 3.0 9.0 0.00 0.00 0.00 69 1023.2
20230207020505 43 323 5.0 9.0 0.00 0.00 0.00 69 1023.1
20230207020005 43 336 7.0 12.0 0.00 0.00 0.00 69 1023.1
20230207015505 43 336 5.0 10.0 0.00 0.00 0.00 69 1023.1
20230207015006 43 325 4.0 8.0 0.00 0.00 0.00 68 1023.0
20230207014006 43 342 5.0 9.0 0.00 0.00 0.00 68 1023.0
20230207013006 43 345 3.0 8.0 0.00 0.00 0.00 68 1022.8
20230207012505 43 354 5.0 8.0 0.00 0.00 0.00 68 1022.6
20230207012006 43 338 3.0 9.0 0.00 0.00 0.00 68 1022.6
20230207011006 43 339 3.0 6.0 0.00 0.00 0.00 68 1022.6
20230207010507 43 330 3.0 8.0 0.00 0.00 0.00 68 1022.5
20230207005506 44 339 5.0 8.0 0.00 0.00 0.00 68 1022.4
20230207004006 44 325 5.0 12.0 0.00 0.00 0.00 68 1022.3
20230207003506 44 341 5.0 12.0 0.00 0.00 0.00 68 1022.3
20230207003005 44 338 5.0 9.0 0.00 0.00 0.00 68 1022.2
20230207002506 44 336 4.0 9.0 0.00 0.00 0.00 69 1022.1
20230207002006 43 334 5.0 9.0 0.00 0.00 0.00 69 1022.0
20230207001505 43 338 5.0 7.0 0.00 0.00 0.00 69 1021.8
20230207001006 43 328 3.0 9.0 0.00 0.00 0.00 69 1021.7
20230207000505 43 342 4.0 9.0 0.00 0.00 0.00 69 1021.6
20230206235506 43 341 4.0 8.0 0.00 0.00 0.00 69 1021.3
20230206234505 44 337 6.0 13.0 0.00 0.00 0.00 69 1021.1
20230206233505 44 347 4.0 10.0 0.00 0.00 0.00 69 1020.9
20230206233006 44 333 5.0 12.0 0.00 0.00 0.00 68 1020.8
20230206232507 44 349 6.0 14.0 0.00 0.00 0.00 68 1020.7
20230206231505 44 356 5.0 12.0 0.00 0.00 0.00 68 1020.6
20230206231006 44 356 5.0 12.0 0.00 0.00 0.00 69 1020.5
20230206230505 44 339 6.0 12.0 0.00 0.00 0.00 69 1020.3
20230206225505 44 359 5.0 13.0 0.00 0.00 0.00 69 1020.1
20230206225007 45 5 7.0 14.0 0.00 0.00 0.00 69 1020.0
20230206224505 45 345 7.0 16.0 0.00 0.00 0.00 68 1019.8
20230206224006 45 354 5.0 14.0 0.00 0.00 0.00 68 1019.8
20230206223505 45 2 6.0 13.0 0.00 0.00 0.00 68 1019.7
20230206223007 45 338 6.0 12.0 0.00 0.00 0.00 68 1019.5
20230206222505 45 3 6.0 12.0 0.00 0.00 0.00 67 1019.4
20230206222006 45 350 8.0 13.0 0.00 0.00 0.00 67 1019.2
20230206221506 46 348 5.0 13.0 0.00 0.00 0.00 67 1019.3
20230206221005 46 351 6.0 12.0 0.00 0.00 0.00 66 1019.2
20230206220506 46 352 5.0 14.0 0.00 0.00 0.00 66 1019.1
20230206220006 46 348 6.0 15.0 0.00 0.00 0.00 65 1018.9
20230206215505 46 349 8.0 14.0 0.00 0.00 0.00 65 1018.7
20230206214505 47 337 9.0 18.0 0.00 0.00 0.00 62 1018.4
20230206214005 47 338 12.0 17.0 0.00 0.00 0.00 62 1018.4
20230206213505 47 337 7.0 15.0 0.00 0.00 0.00 63 1018.3
20230206213006 47 2 7.0 15.0 0.00 0.00 0.00 64 1018.3
20230206212506 47 0 9.0 16.0 0.00 0.00 0.00 63 1018.2
20230206212005 47 334 7.0 15.0 0.00 0.00 0.00 64 1018.0
20230206211506 47 346 5.0 12.0 0.00 0.00 0.00 64 1017.9
20230206211006 47 0 6.0 12.0 0.00 0.00 0.00 64 1017.8
20230206210505 47 3 7.0 14.0 0.00 0.00 0.00 64 1017.5
20230206210005 47 347 7.0 20.0 0.00 0.00 0.00 64 1017.4
20230206205505 47 352 9.0 20.0 0.00 0.00 0.00 64 1017.2
20230206205006 48 354 11.0 20.0 0.00 0.00 0.00 63 1017.1
20230206204505 48 347 9.0 20.0 0.00 0.00 0.00 63 1017.0
20230206204007 49 2 11.0 20.0 0.00 0.00 0.00 63 1017.0
20230206203505 49 355 10.0 17.0 0.00 0.00 0.00 60 1016.8
20230206203006 49 344 8.0 18.0 0.00 0.00 0.00 60 1016.8
20230206202506 50 347 9.0 20.0 0.00 0.00 0.00 60 1016.7
20230206202006 50 341 13.0 25.0 0.00 0.00 0.00 59 1016.5
20230206201505 51 10 16.0 29.0 0.00 0.00 0.00 59 1016.3
20230206201006 51 355 7.0 20.0 0.00 0.00 0.00 60 1016.2
20230206195505 50 341 7.0 15.0 0.00 0.00 0.00 60 1016.1
20230206195006 50 355 8.0 15.0 0.00 0.00 0.00 61 1015.9
20230206194505 50 345 8.0 14.0 0.00 0.00 0.00 61 1015.8
20230206194005 51 3 10.0 20.0 0.00 0.00 0.00 60 1015.7
20230206193006 51 356 10.0 17.0 0.00 0.00 0.00 58 1015.6
20230206192505 52 330 10.0 16.0 0.00 0.00 0.00 59 1015.6
20230206192006 52 336 6.0 17.0 0.00 0.00 0.00 60 1015.5
20230206191506 51 8 9.0 15.0 0.00 0.00 0.00 61 1015.5
20230206191005 51 333 10.0 16.0 0.00 0.00 0.00 60 1015.5
20230206190507 51 342 9.0 16.0 0.00 0.00 0.00 60 1015.4
20230206185506 52 357 7.0 13.0 0.00 0.00 0.00 62 1015.4
20230206185005 52 353 8.0 12.0 0.00 0.00 0.00 60 1015.4
20230206184506 52 339 9.0 21.0 0.00 0.00 0.00 58 1015.3
20230206184006 53 357 8.0 15.0 0.00 0.00 0.00 56 1015.3
20230206183505 53 326 7.0 13.0 0.00 0.00 0.00 57 1015.2
20230206183006 53 338 9.0 17.0 0.00 0.00 0.00 58 1015.3
20230206182507 53 329 13.0 20.0 0.00 0.00 0.00 56 1015.2
20230206182005 52 2 14.0 23.0 0.00 0.00 0.00 56 1015.1
20230206181005 53 323 13.0 25.0 0.00 0.00 0.00 55 1015.0
20230206180005 54 358 12.0 20.0 0.00 0.00 0.00 54 1014.9
20230206175505 54 353 16.0 24.0 0.00 0.00 0.00 53 1014.9
20230206174505 53 2 13.0 25.0 0.00 0.00 0.00 57 1014.9
20230206174006 53 349 14.0 26.0 0.00 0.00 0.00 55 1015.1
20230206173505 54 340 12.0 20.0 0.00 0.00 0.00 55 1015.0
20230206172505 54 352 11.0 20.0 0.00 0.00 0.00 56 1015.0
20230206172006 54 2 11.0 20.0 0.00 0.00 0.00 57 1015.0
20230206171505 53 329 14.0 23.0 0.00 0.00 0.00 56 1015.1
20230206170505 54 0 12.0 21.0 0.00 0.00 0.00 58 1015.1
20230206170005 54 342 9.0 20.0 0.00 0.00 0.00 57 1015.2
20230206165505 53 6 10.0 18.0 0.00 0.00 0.00 57 1015.2
20230206165005 53 342 13.0 20.0 0.00 0.00 0.00 58 1015.3
20230206164505 53 327 12.0 23.0 0.00 0.00 0.00 57 1015.4
20230206164005 53 2 12.0 21.0 0.00 0.00 0.00 59 1015.4
20230206163505 53 6 13.0 23.0 0.00 0.00 0.00 59 1015.3
20230206163005 53 357 12.0 20.0 0.00 0.00 0.00 58 1015.3
20230206162505 53 328 10.0 20.0 0.00 0.00 0.00 59 1015.4
20230206162005 53 329 14.0 24.0 0.00 0.00 0.00 58 1015.3
20230206161505 53 9 9.0 18.0 0.00 0.00 0.00 58 1015.3
20230206161005 53 329 10.0 20.0 0.00 0.00 0.00 60 1015.2
20230206160506 53 345 10.0 26.0 0.00 0.00 0.00 59 1015.3
20230206160005 53 344 10.0 20.0 0.00 0.00 0.00 59 1015.4
20230206155505 52 337 10.0 22.0 0.00 0.00 0.00 60 1015.2
20230206155005 52 356 8.0 18.0 0.00 0.00 0.00 62 1015.2
20230206154504 52 349 9.0 18.0 0.00 0.00 0.00 62 1015.3
20230206153505 50 2 7.0 16.0 0.00 0.00 0.00 66 1015.1
20230206153006 50 331 9.0 15.0 0.00 0.00 0.00 66 1015.1
20230206152504 49 318 8.0 15.0 0.00 0.00 0.00 68 1015.1
20230206152006 49 321 9.0 17.0 0.00 0.00 0.00 68 1015.1
20230206151504 49 337 9.0 14.0 0.00 0.00 0.00 68 1015.1
20230206150505 48 344 6.0 14.0 0.00 0.00 0.00 70 1015.0
20230206145506 47 334 8.0 14.0 0.00 0.00 0.00 71 1015.0
20230206144506 45 343 3.0 8.0 0.00 0.00 0.00 75 1015.2
20230206144006 45 344 4.0 7.0 0.00 0.00 0.00 76 1015.1
20230206143506 45 326 4.0 9.0 0.00 0.00 0.00 77 1015.1
20230206143005 45 328 3.0 8.0 0.00 0.00 0.00 79 1015.1
20230206142505 44 0 3.0 8.0 0.00 0.00 0.00 79 1015.0
20230206142007 44 330 4.0 8.0 0.00 0.00 0.00 80 1014.9
20230206141007 43 351 4.0 8.0 0.00 0.00 0.00 82 1014.8
20230206140505 43 339 3.0 9.0 0.00 0.00 0.00 84 1014.9
20230206140006 43 342 3.0 6.0 0.00 0.00 0.00 86 1014.8
20230206135505 42 347 5.0 9.0 0.00 0.00 0.00 86 1014.8
20230206135005 42 334 4.0 6.0 0.00 0.00 0.00 87 1014.8
20230206134505 42 328 3.0 8.0 0.00 0.00 0.00 89 1014.8
20230206133507 42 336 4.0 8.0 0.00 0.00 0.00 90 1014.6
20230206133005 41 353 3.0 10.0 0.00 0.00 0.00 91 1014.5
20230206132506 41 335 6.0 8.0 0.00 0.00 0.00 92 1014.5
20230206132005 41 341 3.0 6.0 0.00 0.00 0.00 94 1014.5
20230206131504 41 346 4.0 7.0 0.00 0.00 0.00 95 1014.4
20230206131006 40 338 3.0 7.0 0.00 0.00 0.00 96 1014.3
20230206130505 40 343 5.0 8.0 0.00 0.00 0.00 97 1014.2
20230206125506 40 331 2.0 6.0 0.00 0.00 0.00 98 1014.1
20230206125006 39 343 2.0 5.0 0.00 0.00 0.00 98 1014.1
20230206124505 39 5 2.0 6.0 0.00 0.00 0.00 98 1014.1
20230206124005 39 356 2.0 3.0 0.00 0.00 0.00 98 1014.1
20230206123506 38 347 2.0 3.0 0.00 0.00 0.00 98 1014.1
20230206123005 38 344 2.0 6.0 0.00 0.00 0.00 98 1014.0
20230206122006 37 341 1.0 2.0 0.00 0.00 0.00 98 1014.1
20230206121005 37 352 0.0 1.0 0.00 0.00 0.00 98 1013.9
20230206120507 37 334 0.0 1.0 0.00 0.00 0.00 98 1013.8
20230206120005 37 303 0.0 1.0 0.00 0.00 0.00 98 1013.7
20230206115505 38 329 0.0 2.0 0.00 0.00 0.00 98 1013.6
20230206115007 38 345 0.0 2.0 0.00 0.00 0.00 98 1013.6
20230206114506 37 226 0.0 0.0 0.00 0.00 0.00 98 1013.5
20230206114006 37 226 0.0 0.0 0.00 0.00 0.00 98 1013.5
20230206113005 37 221 0.0 1.0 0.00 0.00 0.00 98 1013.3
20230206112005 37 148 0.0 0.0 0.00 0.00 0.00 98 1013.5
20230206111005 37 148 0.0 0.0 0.00 0.00 0.00 97 1013.3
20230206110505 37 148 0.0 0.0 0.00 0.00 0.00 97 1013.2
20230206110005 37 148 0.0 0.0 0.00 0.00 0.00 97 1013.3
20230206105505 37 148 0.0 0.0 0.00 0.00 0.00 98 1013.3
20230206105005 38 148 0.0 0.0 0.00 0.00 0.00 97 1013.2
20230206104504 38 148 0.0 0.0 0.00 0.00 0.00 97 1013.2
20230206104005 38 148 0.0 0.0 0.00 0.00 0.00 98 1013.2
20230206103005 38 148 0.0 0.0 0.00 0.00 0.00 97 1013.1
20230206102505 39 148 0.0 0.0 0.00 0.00 0.00 97 1013.0
20230206102007 39 148 0.0 0.0 0.00 0.00 0.00 97 1013.0
20230206101506 40 148 0.0 0.0 0.00 0.00 0.00 97 1013.0
20230206101005 40 148 0.0 0.0 0.00 0.00 0.00 97 1012.9
20230206100505 40 148 0.0 0.0 0.00 0.00 0.00 97 1012.9
20230206100004 40 148 0.0 0.0 0.00 0.00 0.00 97 1012.8
20230206095505 40 148 0.0 0.0 0.00 0.00 0.00 97 1012.7
20230206095005 41 148 0.0 0.0 0.00 0.00 0.00 97 1012.8
20230206094505 41 148 0.0 0.0 0.00 0.00 0.00 97 1012.8
20230206094005 41 148 0.0 0.0 0.00 0.00 0.00 97 1012.7
20230206093504 41 148 0.0 0.0 0.00 0.00 0.00 97 1012.7
20230206093006 41 148 0.0 0.0 0.00 0.00 0.00 97 1012.8
20230206092506 41 148 0.0 0.0 0.00 0.00 0.00 97 1012.7
20230206092006 42 148 0.0 0.0 0.00 0.00 0.00 97 1012.7
20230206091505 42 148 0.0 0.0 0.00 0.00 0.00 97 1012.5
20230206091005 42 148 0.0 0.0 0.00 0.00 0.00 97 1012.5